Wind_Speed
3 5 5 7 8 9 10 11 11 12 14 14 15 15 16 16 14 12 10 8 7 7 7 8 9 10 10 11 12 14 15 15 15 14 14 14 15 16 13 11 11 10 10 10 9 9 10 10 10 9 7 7 7 7 7 7 7 8 9 10 11 11 11
5 6 7 7 9 10 10 11 11 12 13 14 14 14 16 16 15 12 10 8 7 7 6 6 8 9 10 11 12 13 15 15 14 14 14 13 15 15 13 11 10 9 9 10 9 8 9 8 7 7 6 7 7 7 8 8 8 8 9 9 10 11 11
6 7 7 8 9 10 11 12 13 14 15 14 12 12 14 15 14 11 9 8 6 6 7 7 8 9 9 10 10 10 13 13 13 13 13 12 12 12 11 10 9 8 9 9 8 7 8 7 4 4 5 5 6 7 7 8 8 8 8 8 9 10 9
7 8 8 10 11 12 14 15 16 17 17 16 12 11 12 13 12 10 8 8 6 6 7 8 8 7 7 7 8 9 11 11 11 11 11 10 8 8 8 9 9 9 9 8 6 6 7 6 3 3 3 4 5 7 7 7 8 8 8 8 8 8 8
8 9 10 11 13 14 16 18 18 17 18 18 13 10 11 12 11 10 8 7 6 6 7 7 8 8 7 6 7 8 9 9 9 9 10 9 7 7 7 8 9 8 7 6 6 6 5 4 2 2 2 4 5 5 5 5 6 6 6 7 7 7 8
10 11 12 14 15 16 18 19 18 18 18 17 11 9 11 11 9 9 8 7 6 5 5 6 8 8 8 7 6 7 8 8 7 8 9 9 8 9 9 9 9 8 7 7 6 6 5 3 3 2 1 2 3 3 3 4 5 5 6 7 8 8 9
12 13 15 16 18 18 19 19 18 18 18 14 8 7 9 9 8 8 7 7 6 4 5 6 7 8 8 8 7 7 8 9 9 9 9 9 9 10 10 10 9 8 8 8 6 6 5 4 4 3 3 2 1 1 2 4 5 5 6 6 7 7 7
15 16 18 19 20 20 21 20 17 17 15 11 8 8 9 8 7 6 6 6 5 4 5 6 8 8 8 8 8 7 8 9 10 10 10 10 10 10 10 10 9 8 8 8 8 7 6 6 5 5 5 4 2 3 2 2 4 4 4 5 5 6 6
17 18 20 21 20 20 21 19 15 14 12 9 8 8 8 7 6 5 5 5 5 6 7 8 8 8 8 8 8 8 8 8 9 9 10 10 10 10 10 9 8 8 8 8 7 7 6 6 6 6 6 4 3 3 4 2 3 3 3 4 4 5 5
16 19 20 20 19 20 19 16 13 11 8 8 8 7 7 6 5 4 4 4 5 7 8 9 9 9 9 9 9 9 9 9 9 9 10 10 11 11 10 9 9 8 8 7 7 6 6 5 5 6 7 7 4 2 2 0 2 3 2 3 4 4 4
16 18 19 19 19 18 16 12 11 10 7 7 8 6 6 5 4 4 4 5 6 7 8 9 10 10 10 9 9 10 10 10 10 10 10 10 11 10 10 10 9 9 8 8 8 8 8 7 8 7 7 10 9 2 1 3 3 2 2 4 5 5 5
14 16 15 15 15 14 13 12 11 9 6 7 7 5 5 4 3 4 5 5 6 7 8 9 10 10 10 11 11 11 11 11 11 11 12 12 11 11 10 10 10 10 9 9 9 8 8 8 7 7 6 7 8 6 5 7 5 3 4 6 7 7 7
13 14 12 11 12 12 12 11 10 8 6 7 5 5 4 3 4 4 5 6 6 7 8 9 10 11 11 12 13 14 14 14 13 13 13 13 12 11 11 10 9 9 8 7 7 6 6 5 5 5 4 3 3 2 3 5 5 5 7 8 8 9 9
11 12 12 12 12 12 11 10 10 8 7 7 5 5 5 4 5 5 6 6 7 7 8 8 9 10 11 11 11 12 13 13 13 13 12 12 11 10 10 9 8 7 7 6 5 4 3 2 1 1 2 2 2 4 5 7 8 7 8 9 9 10 10
9 11 11 11 10 10 11 10 10 9 9 7 6 6 6 6 6 6 7 8 8 8 8 9 9 9 9 9 9 9 9 10 10 10 10 10 9 8 7 6 5 5 4 4 4 4 3 2 2 3 4 4 5 6 7 9 9 8 8 9 10 10 10
8 9 11 10 8 10 11 10 10 11 10 8 8 8 8 7 8 8 8 8 9 9 9 9 9 9 9 9 8 7 6 6 6 6 6 6 6 5 4 4 3 3 3 4 4 4 4 5 4 5 5 7 7 8 9 9 9 9 10 10 10 11 10
7 9 10 9 8 9 10 10 11 12 12 10 10 10 10 9 9 9 9 10 10 10 10 10 10 10 9 8 8 7 6 6 6 5 5 4 4 4 4 5 5 5 5 5 5 6 6 7 8 8 8 10 10 10 10 10 9 10 11 11 10 12 12
7 8 10 10 9 9 10 10 11 13 13 13 13 13 12 12 12 12 12 11 11 11 12 12 11 10 10 9 9 8 8 7 7 7 7 7 7 7 8 8 8 8 8 8 9 9 8 9 11 11 11 11 12 11 10 10 11 11 11 12 13 14 15
9 9 10 10 10 10 10 10 11 12 13 14 14 15 15 14 14 14 14 14 14 14 14 14 13 13 12 12 11 11 11 10 11 11 11 11 12 12 12 12 12 12 12 12 12 12 12 12 13 13 12 11 12 12 10 12 14 13 12 14 16 17 18
10 11 11 11 11 11 10 10 10 12 13 14 15 17 18 18 16 16 16 17 17 17 17 17 17 16 16 15 15 14 14 14 14 15 15 15 16 16 16 17 17 16 16 16 14 14 14 14 13 14 13 11 12 13 13 13 13 14 15 16 16 16 17
9 10 10 11 12 11 11 10 11 12 13 14 16 17 19 21 20 19 18 18 19 19 20 21 21 20 19 19 18 18 18 18 18 19 19 20 21 20 21 21 21 20 20 18 17 17 16 16 15 15 14 14 14 14 13 12 12 13 15 16 16 16 16
9 9 9 11 11 11 11 11 12 13 13 15 17 18 19 21 22 22 21 21 21 22 22 23 23 23 22 22 21 21 22 21 22 23 23 24 25 25 25 25 24 24 22 21 20 19 18 16 17 17 16 15 14 14 13 12 12 13 14 15 15 15 15
11 10 10 11 11 11 11 11 12 14 15 16 18 20 21 21 22 24 24 24 25 25 25 25 25 25 25 25 24 25 25 25 26 27 27 28 29 29 29 28 27 26 24 23 22 20 18 17 17 17 16 14 13 13 13 13 13 14 15 15 16 17 18
13 12 11 11 11 12 12 13 13 14 16 18 20 22 24 24 24 25 26 27 27 27 28 28 28 27 27 27 27 28 29 29 29 30 30 31 32 33 33 30 27 25 24 24 23 19 16 15 15 15 14 13 12 14 15 15 15 15 15 16 17 20 22
14 14 13 12 13 13 14 15 15 15 17 19 21 24 26 26 27 28 29 30 31 30 30 31 30 30 30 30 30 30 31 33 33 33 33 33 34 36 36 32 27 25 25 25 21 16 14 13 12 13 13 13 14 16 17 17 16 16 17 18 18 20 22
14 15 15 15 16 15 15 16 17 18 19 20 21 24 25 25 26 29 30 32 33 33 34 33 32 32 33 32 32 32 33 35 36 36 37 37 37 37 36 34 32 32 32 26 18 14 12 13 12 13 14 15 16 17 18 18 18 17 19 20 21 22 24
14 14 15 16 17 17 18 18 19 20 21 22 22 23 24 24 26 29 29 31 33 35 36 34 32 32 33 33 33 33 35 37 37 38 40 40 40 39 37 36 36 36 31 20 14 12 12 13 14 15 16 16 17 17 18 18 19 19 20 21 23 24 25
15 15 16 16 17 18 20 21 22 22 23 24 25 25 26 26 27 29 29 31 33 35 36 34 32 32 34 35 36 35 36 38 38 40 42 43 42 42 40 38 37 34 25 14 10 11 13 14 15 16 16 17 17 17 18 18 19 21 21 23 24 25 26
18 18 19 20 20 21 22 23 25 25 25 25 25 26 26 27 28 28 29 30 32 33 35 32 30 30 32 34 35 34 34 36 36 38 41 42 42 42 41 40 38 32 22 13 10 12 14 15 16 16 16 17 17 18 19 20 21 22 23 24 25 26 27
21 22 22 23 24 25 25 25 25 27 29 28 27 27 27 28 28 28 29 30 30 31 32 29 25 27 29 30 30 28 29 31 31 32 34 36 38 39 40 41 37 28 18 14 13 14 15 16 16 16 16 17 19 20 21 22 23 23 24 25 26 27 28
25 26 26 26 27 28 28 27 26 27 29 30 31 31 31 31 31 29 30 30 30 31 30 26 23 24 26 26 26 25 25 27 27 27 27 30 34 36 35 35 30 21 16 16 17 16 16 17 17 17 18 19 21 23 22 22 23 24 26 26 27 29 30
29 29 29 30 31 31 31 31 30 30 30 30 31 33 34 34 33 32 32 32 32 32 32 29 25 24 25 25 25 24 25 25 24 24 25 26 27 25 22 20 18 17 17 18 17 16 16 17 17 18 20 21 23 25 24 23 23 25 27 27 28 29 30
32 32 32 32 33 33 33 33 34 34 33 32 32 33 35 36 36 35 35 35 34 34 34 30 25 24 25 25 25 24 24 23 24 24 22 20 18 16 16 15 15 16 17 17 17 17 17 18 19 20 21 22 24 26 28 26 25 26 28 28 29 30 30
33 33 32 32 33 33 33 33 34 35 35 35 35 35 36 38 38 38 38 36 35 36 36 30 25 24 24 24 24 24 23 22 22 21 17 16 15 15 16 16 16 17 18 18 19 19 19 20 21 22 22 24 25 26 28 28 28 27 28 29 30 31 32
36 36 35 35 35 36 35 36 37 37 38 38 38 37 38 38 39 40 39 36 36 37 35 30 26 24 24 24 23 23 22 21 19 17 16 16 18 18 18 18 18 19 19 19 20 20 20 21 22 23 24 25 26 26 27 29 29 29 30 30 31 32 34
39 40 40 40 40 40 40 40 40 40 41 41 40 40 40 39 39 40 39 37 38 36 32 29 28 26 24 23 23 23 24 23 21 20 20 22 23 21 20 20 20 20 20 20 20 21 22 23 24 25 26 26 27 27 27 29 30 31 31 32 33 34 36
45 46 46 47 46 46 45 44 43 43 43 42 41 41 40 40 41 41 38 37 37 34 30 30 30 27 25 25 25 25 25 25 25 25 25 26 25 23 22 22 22 21 21 21 21 22 23 25 26 27 28 28 28 28 29 30 31 31 32 33 35 36 37
Wind_Direction
291 313 326 331 335 340 341 341 343 344 342 341 339 336 336 337 340 339 327 313 287 262 258 263 258 248 244 243 240 237 237 239 241 242 244 247 254 255 249 248 250 242 239 237 232 232 223 226 238 238 245 251 242 245 257 269 274 275 278 278 277 275 273
306 311 320 326 329 330 330 332 333 335 334 333 332 330 328 329 334 335 324 309 287 258 244 251 256 249 242 238 237 236 235 237 239 237 236 239 248 256 252 244 241 239 237 230 224 217 211 220 236 232 233 239 244 254 261 268 272 270 272 272 270 269 268
301 309 316 319 322 322 322 326 328 328 328 326 324 323 321 322 327 328 317 301 285 250 229 234 246 246 240 233 229 229 228 230 232 230 231 239 247 249 248 243 236 235 238 230 215 198 190 199 219 221 231 250 256 261 264 268 272 273 273 272 273 275 275
293 303 312 314 314 317 319 322 324 324 325 321 316 318 316 314 319 320 307 293 282 246 226 227 234 235 234 230 223 220 224 224 221 219 230 244 238 223 231 241 234 227 228 219 199 190 182 178 200 229 241 262 267 266 267 271 275 278 280 278 280 284 285
291 299 305 307 306 311 314 314 315 317 320 317 306 308 312 309 311 311 299 288 281 254 227 222 224 224 221 222 217 210 213 218 213 210 224 238 227 212 218 225 219 209 210 204 189 196 195 173 192 220 227 261 273 267 263 271 277 282 286 286 286 288 290
286 292 296 298 300 304 306 306 307 309 316 316 303 301 309 306 305 303 293 279 273 253 223 217 218 216 211 209 208 201 191 192 199 202 216 227 220 213 212 212 210 201 207 214 202 198 195 181 197 176 166 246 259 252 263 273 277 282 287 289 292 294 297
280 286 289 292 296 298 297 298 303 307 311 312 307 305 306 304 300 296 286 271 262 240 213 211 211 210 208 205 205 200 184 176 179 184 194 204 205 204 202 203 205 202 206 209 201 193 182 180 192 165 159 206 226 333 312 285 280 292 297 300 307 310 314
280 284 286 289 292 291 291 293 299 304 303 299 306 308 302 301 295 285 273 261 251 226 204 202 207 209 210 211 209 200 186 176 172 172 176 181 186 188 188 193 197 200 202 198 196 195 182 181 186 176 185 200 167 126 136 263 301 329 329 330 333 334 339
277 282 284 286 287 286 288 292 296 299 292 287 303 307 299 297 288 272 257 241 229 216 205 200 204 208 210 214 212 201 190 181 175 171 170 170 173 175 176 185 188 187 190 189 195 199 189 192 192 185 186 154 116 144 166 209 328 5 356 352 356 350 354
270 276 280 280 278 280 284 288 288 286 282 288 302 302 293 288 274 258 240 220 210 208 204 199 200 202 204 205 201 195 188 183 178 173 170 168 170 173 175 180 181 179 180 177 183 187 181 185 174 172 166 129 113 309 305 214 355 19 6 356 1 354 357
266 271 275 275 273 276 282 284 281 275 276 291 297 292 278 269 252 233 211 198 197 199 198 196 195 194 196 194 189 188 183 177 174 169 167 166 166 167 168 168 163 158 157 151 151 151 147 146 143 149 150 137 143 168 239 223 266 347 343 332 339 335 337
260 268 272 273 271 275 282 285 277 265 270 289 289 275 259 244 224 209 191 184 185 187 185 182 181 179 178 176 174 173 167 162 159 155 153 150 147 146 144 144 140 134 133 132 132 133 133 134 134 138 136 133 143 152 177 217 257 313 314 317 325 324 329
250 262 266 268 271 277 283 282 270 255 263 281 274 252 240 211 197 191 176 173 174 176 176 171 170 167 166 168 167 163 157 151 148 146 143 139 137 135 134 132 128 123 121 119 119 119 124 130 132 137 138 138 160 195 225 251 287 314 313 318 323 326 333
247 257 263 267 270 276 279 276 266 250 255 269 259 235 218 189 186 181 168 168 170 173 174 172 170 167 166 169 168 164 158 152 149 146 142 141 139 138 137 134 132 129 125 124 126 129 136 141 152 181 202 220 242 262 278 286 294 301 310 318 320 325 331
258 259 263 266 268 275 275 270 262 248 247 257 248 225 207 188 183 180 170 171 175 179 179 176 175 171 168 168 169 166 160 154 152 148 146 147 145 145 145 144 145 145 146 158 168 176 187 206 237 243 247 260 268 271 278 286 292 294 301 311 314 318 322
264 260 262 264 268 278 278 269 258 246 242 244 238 224 213 199 187 182 180 179 182 187 186 183 180 176 173 172 171 170 162 158 158 154 156 161 162 168 177 182 192 201 211 217 224 228 225 230 245 254 256 259 264 268 272 278 285 290 292 295 301 303 305
259 259 263 264 266 277 284 277 261 247 239 236 234 230 225 213 198 190 190 190 193 195 194 193 190 187 187 187 186 186 184 183 184 187 195 201 210 224 236 240 243 250 252 251 253 252 246 251 259 262 263 263 262 262 268 274 278 288 292 287 287 293 297
262 263 267 266 264 272 283 282 268 250 239 233 233 234 232 223 211 204 201 201 204 205 205 205 203 203 204 205 207 209 211 212 214 221 227 231 239 247 252 254 254 255 253 254 257 256 257 264 265 265 269 274 272 266 269 279 280 284 293 293 291 293 296
261 263 264 264 265 270 278 282 274 258 242 233 234 236 235 230 221 215 213 213 213 214 216 217 216 217 218 219 223 224 227 231 232 236 240 244 248 251 255 256 256 255 254 254 255 256 262 268 269 273 277 276 273 273 280 289 288 288 295 301 303 303 302
256 259 261 262 263 265 269 272 270 262 248 237 236 237 236 235 230 224 222 222 222 222 223 224 225 225 225 228 231 232 236 239 241 245 248 250 253 255 257 257 257 257 256 254 254 259 267 270 271 277 278 269 269 281 290 292 295 298 301 305 308 309 310
255 260 263 264 263 261 263 264 261 259 252 243 237 236 236 236 235 234 232 230 230 230 229 230 231 231 231 233 235 237 240 242 247 252 253 255 258 258 258 258 257 257 256 255 259 265 269 271 271 273 273 269 272 282 286 285 288 295 301 307 310 311 312
255 259 260 263 263 258 259 262 260 257 256 250 240 234 235 236 236 238 239 238 237 236 236 236 236 236 237 238 239 241 243 247 252 256 257 260 261 261 262 261 258 258 259 260 265 270 270 269 270 271 269 268 271 274 275 276 282 290 297 303 306 307 304
254 257 258 263 268 267 262 263 263 261 259 256 246 236 234 236 237 238 241 243 244 243 242 242 242 242 243 243 245 246 247 251 255 258 260 262 264 266 265 261 257 256 257 258 262 266 268 268 267 268 268 266 267 269 272 277 284 291 296 298 298 299 297
249 254 257 261 268 272 271 270 268 263 259 258 253 243 237 236 237 238 240 243 245 246 246 247 246 246 248 249 250 252 255 257 258 260 262 263 266 268 265 259 256 256 258 261 258 255 259 263 262 264 266 265 266 272 279 284 288 290 292 293 294 295 296
242 248 253 256 260 263 269 273 271 265 260 259 255 247 243 241 241 241 242 243 245 246 248 250 250 251 252 253 253 255 259 262 263 263 262 263 265 266 267 267 266 268 273 270 257 247 250 255 257 261 265 269 274 279 285 289 292 293 294 293 293 293 294
244 248 251 254 257 258 262 267 270 270 267 264 260 256 252 249 248 249 249 249 250 251 251 251 253 256 257 257 257 258 260 263 265 265 264 264 264 265 270 273 274 281 286 273 249 242 251 251 256 264 269 275 280 283 288 292 294 294 294 295 296 295 296
248 252 254 257 260 261 261 262 266 269 270 269 267 265 261 256 253 255 256 255 257 257 255 253 254 259 263 263 264 264 263 263 265 265 264 263 262 263 266 269 273 283 285 265 239 246 253 250 259 266 271 278 282 285 289 293 295 296 296 297 298 299 301
256 259 262 263 266 269 269 269 269 269 269 269 270 269 267 263 259 258 259 260 262 263 263 261 259 260 263 265 267 267 266 265 264 263 262 261 260 260 261 263 269 276 272 248 233 247 248 252 263 268 275 282 285 290 295 297 299 299 300 300 301 303 305
265 266 267 269 272 275 276 276 274 271 268 267 267 268 267 266 265 263 262 262 263 264 265 262 258 257 259 262 264 265 265 265 263 260 261 261 261 260 259 260 263 263 255 237 231 240 247 258 266 272 280 286 290 295 298 300 301 302 302 303 304 305 306
268 268 271 274 276 277 279 279 276 273 270 267 264 264 264 264 265 266 266 265 264 263 261 254 250 252 256 259 261 260 261 262 260 259 259 259 259 259 260 261 258 249 238 236 240 246 257 265 270 277 284 289 293 297 299 302 304 303 304 305 305 306 306
270 271 273 275 276 278 279 278 275 272 271 270 268 266 266 266 265 265 266 268 268 268 265 260 254 254 255 258 260 260 259 259 259 258 256 255 257 258 259 258 251 237 230 241 248 254 262 267 273 281 287 292 295 297 301 306 306 304 305 306 306 307 308
272 272 273 273 274 274 274 274 273 271 271 270 270 270 269 269 268 266 265 267 269 271 271 266 259 255 255 257 260 262 261 258 256 254 252 252 254 251 245 240 232 226 231 241 248 255 261 269 277 285 290 296 299 300 301 304 306 307 307 308 307 307 308
271 271 271 271 271 271 270 270 270 269 268 267 267 268 269 269 270 269 268 267 268 270 269 264 254 250 252 254 256 259 258 254 252 251 246 240 235 227 220 217 219 226 235 242 250 257 264 273 282 289 294 298 301 302 303 306 309 310 309 310 310 310 310
270 270 270 270 270 270 270 270 269 269 268 267 265 265 266 268 269 269 268 268 268 268 270 268 259 252 251 251 251 253 251 247 248 250 241 226 218 218 218 220 226 233 241 248 255 262 270 278 284 290 295 298 301 304 306 309 310 310 310 311 312 312 312
274 273 272 271 271 271 270 269 269 268 268 268 267 265 265 266 267 267 266 265 264 264 266 266 259 251 249 249 247 247 245 241 242 244 239 229 224 225 225 228 234 241 246 253 260 267 274 280 285 290 294 297 301 305 307 308 308 308 309 309 310 311 311
277 276 274 272 271 270 269 268 267 266 266 265 265 265 265 264 264 264 264 262 259 259 258 257 253 248 247 246 243 241 241 240 237 235 235 234 232 231 232 236 241 246 251 258 264 270 276 281 286 290 294 297 301 305 306 307 307 307 306 306 307 309 310
274 273 273 272 270 269 268 267 265 265 265 264 263 263 263 262 261 261 261 260 257 254 251 250 248 247 246 243 240 239 240 239 236 234 235 237 238 238 239 243 247 251 256 261 267 272 278 284 288 291 294 298 302 304 305 304 304 304 304 304 306 307 309
Height
3133 3134 3134 3135 3135 3135 3135 3135 3135 3135 3134 3134 3134 3134 3134 3134 3133 3132 3132 3131 3131 3131 3132 3133 3133 3133 3134 3135 3136 3137 3137 3137 3137 3138 3139 3139 3139 3139 3141 3143 3144 3145 3146 3146 3148 3148 3149 3149 3150 3150 3151 3151 3151 3151 3152 3152 3152 3152 3152 3152 3152 3152 3152
3133 3133 3134 3134 3134 3135 3135 3135 3135 3135 3134 3134 3134 3133 3133 3133 3132 3132 3131 3131 3130 3130 3131 3132 3132 3132 3133 3134 3134 3135 3135 3135 3136 3136 3137 3138 3138 3139 3140 3142 3143 3143 3144 3145 3147 3148 3148 3148 3149 3150 3151 3151 3151 3151 3151 3151 3152 3151 3151 3151 3151 3151 3152
3132 3132 3133 3134 3134 3134 3134 3134 3134 3134 3134 3134 3133 3133 3132 3132 3132 3131 3131 3130 3130 3130 3130 3131 3131 3131 3132 3132 3133 3134 3134 3134 3135 3135 3136 3136 3137 3139 3140 3140 3141 3142 3143 3144 3146 3147 3147 3147 3149 3149 3149 3150 3150 3151 3151 3151 3151 3151 3151 3151 3151 3151 3151
3132 3132 3132 3133 3133 3134 3134 3134 3134 3133 3133 3133 3132 3132 3132 3131 3131 3130 3130 3130 3129 3129 3129 3130 3130 3130 3131 3131 3132 3133 3133 3133 3134 3135 3135 3136 3137 3138 3139 3140 3141 3142 3143 3143 3144 3146 3146 3147 3148 3148 3148 3149 3149 3150 3150 3150 3150 3150 3151 3151 3151 3151 3151
3131 3131 3132 3132 3133 3133 3133 3133 3133 3133 3132 3132 3131 3131 3131 3131 3130 3130 3129 3129 3129 3129 3129 3129 3130 3130 3130 3131 3131 3132 3132 3133 3134 3134 3135 3135 3136 3138 3138 3139 3140 3142 3142 3143 3144 3145 3146 3146 3147 3148 3148 3148 3149 3149 3150 3150 3150 3150 3151 3150 3151 3151 3151
3131 3131 3131 3132 3132 3133 3132 3132 3132 3132 3131 3131 3130 3130 3130 3130 3129 3129 3129 3128 3128 3128 3129 3129 3129 3130 3130 3130 3131 3131 3132 3133 3134 3134 3135 3136 3136 3137 3138 3139 3140 3141 3142 3143 3143 3144 3146 3146 3147 3148 3148 3148 3148 3149 3149 3150 3150 3150 3151 3151 3151 3151 3151
3130 3130 3131 3131 3132 3132 3132 3131 3131 3131 3131 3130 3130 3129 3129 3129 3129 3128 3128 3128 3128 3128 3129 3129 3130 3130 3130 3130 3131 3131 3132 3132 3133 3134 3135 3135 3136 3137 3137 3138 3139 3140 3141 3142 3143 3144 3145 3146 3147 3148 3149 3148 3149 3149 3150 3150 3150 3150 3151 3151 3151 3151 3151
3130 3130 3130 3131 3131 3131 3131 3131 3130 3130 3130 3130 3129 3129 3129 3128 3128 3128 3128 3128 3128 3128 3129 3129 3130 3130 3130 3131 3131 3132 3132 3133 3133 3133 3134 3135 3135 3136 3137 3138 3139 3140 3141 3142 3142 3143 3145 3146 3147 3148 3149 3149 3149 3150 3151 3151 3151 3151 3151 3151 3151 3151 3151
3128 3128 3129 3129 3130 3130 3130 3130 3130 3129 3129 3129 3129 3129 3129 3128 3127 3127 3127 3128 3128 3128 3129 3129 3130 3130 3131 3132 3132 3133 3133 3133 3134 3134 3135 3135 3136 3137 3137 3138 3139 3140 3141 3142 3142 3143 3145 3146 3146 3147 3148 3149 3150 3151 3151 3151 3151 3151 3151 3151 3152 3151 3151
3127 3127 3128 3128 3128 3128 3128 3129 3129 3129 3128 3128 3128 3129 3128 3128 3127 3127 3127 3127 3128 3128 3129 3130 3130 3131 3131 3132 3132 3133 3134 3134 3134 3135 3135 3136 3137 3137 3138 3139 3139 3140 3141 3142 3143 3144 3145 3146 3147 3148 3148 3150 3152 3152 3152 3152 3151 3151 3152 3151 3151 3151 3151
3126 3126 3127 3127 3127 3127 3127 3128 3128 3128 3128 3128 3128 3128 3128 3128 3127 3127 3127 3127 3128 3129 3129 3130 3130 3131 3132 3132 3133 3134 3134 3135 3135 3136 3136 3137 3137 3138 3139 3139 3140 3141 3142 3143 3144 3145 3146 3146 3147 3148 3148 3149 3151 3152 3153 3153 3151 3151 3152 3151 3151 3151 3151
3125 3126 3126 3126 3126 3126 3126 3126 3127 3127 3127 3127 3127 3127 3127 3127 3127 3127 3128 3128 3128 3129 3129 3130 3130 3131 3132 3132 3133 3134 3134 3135 3136 3136 3137 3138 3138 3139 3140 3141 3141 3142 3143 3144 3145 3145 3146 3147 3147 3148 3148 3149 3150 3151 3152 3152 3151 3151 3151 3151 3151 3151 3151
3124 3125 3125 3125 3125 3125 3125 3126 3126 3126 3126 3127 3127 3127 3127 3127 3127 3127 3128 3128 3129 3129 3130 3131 3131 3132 3132 3133 3134 3134 3135 3135 3136 3137 3138 3138 3139 3140 3141 3141 3142 3143 3144 3144 3145 3146 3147 3147 3148 3148 3148 3149 3150 3150 3150 3150 3150 3151 3151 3151 3151 3150 3150
3123 3124 3125 3125 3125 3125 3125 3125 3125 3125 3126 3127 3127 3127 3127 3127 3127 3128 3128 3129 3130 3130 3131 3132 3132 3133 3133 3134 3135 3135 3135 3136 3137 3137 3138 3139 3139 3140 3141 3142 3142 3143 3144 3145 3145 3146 3147 3147 3148 3148 3149 3149 3149 3150 3150 3149 3149 3150 3150 3150 3150 3149 3149
3122 3124 3124 3124 3124 3124 3124 3124 3124 3124 3125 3126 3127 3127 3127 3127 3127 3128 3128 3129 3130 3131 3131 3132 3133 3133 3134 3135 3136 3136 3136 3137 3138 3138 3139 3139 3140 3141 3141 3142 3143 3143 3144 3145 3145 3146 3146 3147 3147 3148 3148 3148 3149 3149 3149 3149 3148 3148 3148 3148 3148 3148 3148
3123 3123 3124 3124 3124 3123 3123 3123 3123 3124 3125 3126 3126 3127 3127 3127 3127 3128 3129 3129 3130 3131 3132 3132 3133 3134 3135 3135 3136 3136 3137 3138 3138 3139 3140 3140 3141 3141 3142 3143 3143 3144 3145 3145 3146 3146 3146 3147 3147 3147 3147 3147 3148 3148 3148 3148 3148 3147 3147 3147 3147 3146 3147
3122 3123 3123 3123 3123 3123 3122 3122 3123 3123 3124 3125 3126 3126 3127 3127 3127 3128 3129 3129 3130 3131 3132 3133 3133 3134 3135 3135 3136 3136 3137 3138 3138 3139 3140 3140 3141 3142 3142 3143 3143 3144 3144 3145 3145 3146 3146 3146 3146 3146 3146 3146 3146 3147 3147 3147 3147 3146 3145 3145 3145 3144 3144
3121 3122 3122 3122 3122 3122 3122 3122 3122 3122 3123 3124 3125 3126 3126 3127 3127 3128 3129 3129 3130 3131 3132 3132 3133 3134 3134 3135 3135 3136 3137 3137 3138 3138 3139 3140 3140 3141 3141 3142 3142 3143 3143 3144 3144 3144 3145 3145 3145 3145 3145 3145 3145 3145 3145 3145 3145 3145 3144 3144 3143 3143 3143
3120 3121 3121 3121 3121 3122 3122 3122 3122 3122 3123 3123 3124 3124 3125 3126 3127 3127 3128 3129 3130 3130 3131 3132 3132 3133 3134 3134 3135 3135 3136 3137 3137 3138 3138 3139 3139 3140 3140 3140 3141 3141 3142 3142 3142 3143 3143 3143 3143 3143 3144 3144 3143 3143 3144 3144 3143 3143 3143 3142 3142 3141 3141
3119 3120 3120 3120 3120 3121 3121 3121 3121 3122 3122 3122 3122 3123 3124 3125 3126 3127 3127 3128 3129 3129 3130 3131 3131 3132 3133 3133 3134 3134 3135 3136 3136 3137 3137 3138 3138 3138 3139 3139 3139 3139 3140 3140 3140 3141 3141 3141 3142 3142 3142 3143 3142 3142 3142 3142 3142 3141 3141 3141 3141 3140 3139
3118 3119 3119 3119 3119 3119 3120 3120 3120 3120 3121 3121 3121 3122 3122 3123 3125 3125 3126 3127 3127 3128 3128 3129 3130 3130 3131 3132 3133 3134 3134 3135 3135 3136 3136 3136 3136 3137 3137 3137 3137 3137 3138 3138 3138 3139 3139 3139 3140 3140 3140 3141 3141 3140 3140 3141 3141 3140 3139 3139 3139 3138 3138
3117 3117 3117 3118 3118 3118 3118 3118 3119 3119 3119 3120 3120 3120 3121 3121 3123 3124 3124 3125 3125 3126 3127 3127 3128 3129 3129 3130 3131 3132 3133 3133 3134 3134 3135 3135 3134 3135 3135 3135 3135 3135 3136 3136 3136 3137 3137 3137 3137 3137 3138 3138 3138 3138 3139 3139 3139 3139 3138 3138 3137 3137 3136
3115 3115 3116 3116 3116 3117 3116 3116 3116 3117 3118 3118 3118 3118 3119 3120 3121 3121 3122 3123 3123 3124 3124 3125 3125 3126 3127 3128 3129 3130 3130 3131 3131 3132 3132 3132 3132 3132 3132 3132 3131 3131 3133 3134 3134 3134 3135 3135 3135 3135 3135 3136 3136 3136 3137 3137 3138 3137 3136 3136 3136 3135 3134
3113 3114 3114 3114 3114 3115 3114 3114 3114 3115 3116 3116 3116 3117 3117 3117 3117 3118 3119 3120 3120 3121 3121 3122 3123 3124 3124 3125 3126 3127 3127 3128 3128 3129 3129 3129 3129 3128 3128 3128 3128 3129 3130 3131 3131 3132 3132 3133 3132 3132 3133 3134 3134 3134 3135 3135 3135 3135 3135 3134 3133 3133 3131
3112 3112 3112 3112 3113 3113 3113 3112 3113 3113 3113 3113 3113 3114 3114 3114 3114 3114 3115 3116 3116 3117 3118 3119 3120 3121 3121 3122 3123 3124 3124 3124 3124 3125 3125 3125 3125 3123 3123 3125 3126 3127 3128 3128 3128 3129 3130 3130 3130 3130 3130 3131 3132 3132 3132 3132 3132 3132 3131 3131 3131 3130 3129
3110 3110 3111 3111 3111 3111 3111 3111 3111 3111 3110 3110 3111 3111 3110 3110 3109 3109 3110 3112 3112 3113 3113 3115 3117 3118 3119 3120 3120 3121 3121 3120 3121 3121 3121 3121 3121 3120 3121 3122 3122 3122 3124 3125 3124 3125 3127 3127 3128 3128 3128 3129 3129 3129 3129 3129 3129 3129 3128 3127 3127 3127 3126
3107 3108 3108 3109 3109 3109 3109 3109 3109 3109 3108 3108 3108 3108 3108 3107 3106 3105 3107 3108 3109 3108 3109 3111 3114 3116 3116 3117 3117 3118 3117 3116 3117 3117 3117 3117 3117 3118 3119 3120 3119 3119 3121 3121 3120 3122 3124 3125 3125 3126 3126 3126 3126 3126 3126 3126 3125 3125 3125 3124 3123 3122 3122
3105 3105 3106 3106 3107 3107 3107 3107 3107 3107 3106 3106 3106 3105 3106 3105 3104 3104 3106 3106 3106 3106 3107 3109 3112 3113 3113 3113 3113 3114 3113 3112 3112 3112 3111 3112 3113 3114 3116 3117 3116 3117 3118 3119 3118 3120 3122 3123 3123 3123 3123 3123 3123 3123 3122 3122 3122 3121 3121 3120 3120 3119 3118
3102 3102 3103 3103 3104 3104 3104 3104 3104 3104 3104 3104 3103 3103 3103 3103 3103 3104 3104 3103 3104 3104 3105 3107 3109 3109 3109 3109 3109 3109 3109 3107 3108 3107 3107 3107 3109 3110 3111 3112 3113 3114 3116 3116 3117 3118 3120 3120 3120 3120 3120 3120 3119 3119 3119 3119 3118 3118 3117 3117 3116 3115 3114
3099 3099 3100 3100 3100 3101 3101 3102 3101 3101 3101 3101 3101 3100 3100 3100 3100 3101 3100 3100 3101 3101 3101 3103 3105 3105 3105 3105 3105 3105 3105 3103 3102 3103 3103 3104 3105 3105 3107 3108 3109 3110 3112 3114 3115 3116 3117 3117 3117 3117 3117 3116 3116 3115 3116 3115 3115 3114 3114 3113 3112 3112 3111
3096 3096 3097 3097 3097 3097 3098 3098 3098 3098 3098 3097 3097 3097 3096 3097 3097 3097 3096 3095 3096 3096 3097 3099 3101 3101 3101 3101 3101 3101 3101 3099 3099 3099 3100 3100 3100 3101 3102 3104 3105 3106 3109 3112 3113 3113 3113 3113 3113 3114 3113 3112 3112 3112 3112 3112 3111 3111 3110 3109 3108 3108 3106
3092 3092 3093 3093 3093 3093 3094 3094 3094 3095 3094 3094 3094 3093 3092 3092 3093 3094 3093 3092 3092 3093 3092 3094 3096 3097 3097 3098 3097 3097 3097 3096 3096 3096 3096 3096 3096 3098 3099 3100 3101 3104 3106 3109 3110 3110 3110 3110 3110 3110 3110 3109 3108 3108 3109 3110 3108 3107 3106 3105 3105 3104 3103
3088 3088 3089 3089 3089 3089 3090 3090 3090 3090 3090 3090 3090 3090 3088 3088 3088 3089 3089 3089 3089 3088 3087 3089 3092 3093 3094 3094 3094 3094 3093 3092 3093 3093 3094 3094 3095 3096 3097 3098 3100 3102 3104 3105 3106 3106 3107 3107 3107 3107 3106 3106 3105 3104 3104 3104 3104 3102 3102 3101 3100 3099 3098
3083 3083 3084 3084 3084 3084 3085 3085 3085 3086 3086 3086 3086 3086 3085 3084 3083 3083 3084 3084 3084 3083 3082 3084 3087 3088 3089 3090 3090 3090 3090 3089 3090 3091 3091 3092 3092 3094 3095 3097 3098 3100 3101 3102 3103 3103 3103 3103 3103 3104 3103 3103 3103 3101 3100 3099 3099 3099 3098 3097 3096 3095 3094
3077 3077 3078 3079 3079 3079 3080 3080 3081 3081 3081 3081 3082 3081 3081 3080 3079 3078 3079 3080 3079 3078 3079 3081 3082 3083 3084 3085 3086 3087 3087 3087 3087 3088 3089 3089 3090 3092 3094 3095 3096 3097 3098 3099 3100 3100 3100 3100 3100 3101 3100 3100 3099 3098 3096 3095 3095 3095 3094 3093 3092 3092 3090
3071 3071 3072 3072 3073 3073 3074 3075 3075 3076 3076 3076 3076 3076 3076 3076 3075 3074 3074 3075 3074 3074 3075 3077 3077 3079 3080 3082 3083 3083 3084 3085 3085 3086 3087 3087 3088 3090 3092 3093 3094 3094 3095 3096 3096 3097 3097 3097 3097 3097 3097 3096 3095 3094 3093 3092 3092 3091 3090 3090 3089 3088 3086
3066 3065 3065 3066 3066 3067 3067 3068 3069 3070 3070 3070 3071 3071 3071 3071 3070 3069 3070 3071 3070 3069 3071 3072 3072 3074 3076 3078 3079 3080 3081 3082 3083 3084 3085 3085 3086 3088 3089 3090 3090 3091 3092 3092 3093 3093 3093 3094 3094 3093 3093 3092 3091 3090 3090 3089 3089 3088 3088 3086 3085 3084 3082